[[{"header":{"parameterUnit":"m.s-1","parameterCategory":1,"la1":30.2991,"la2":30.254,"lo1":-89.0895,"lo2":-89.0444,"dy":0.0017,"dx":0.0017,"nx":28,"ny":28,"refTime":"2026-01-01T09:00:00:Z","depth":0,"parameterNumber":2,"parameterNumberName":"U-component_of_WINDS"},"data":[0,0,0,0,0,0,0,0,0,0,0,0,0,0,0,0,0,0,0,0,0,0,0,0,0,0,0,0,0,0,0,0,0,0,0,0,0,0,0,0,0,0,0,0,0,0,0,0,0,0,0,0,0,0,0,0,0,0,3.7411,3.7413,0,3.7606,3.7608,3.761,3.7578,3.7575,3.7571,3.7568,3.777,3.7778,3.7786,0,0,0,0,0,0,0,0,0,0,0,0,0,3.7012,3.702,3.7411,3.7413,3.7416,3.7606,3.7608,3.7611,3.7579,3.7574,3.757,3.7566,3.7767,3.7777,3.7787,0,0,0,0,0,0,0,0,0,0,0,0,0,3.7194,3.7022,3.741,3.7422,3.7425,3.7605,3.7608,3.7612,3.7579,3.7574,3.7569,3.7565,3.7764,3.7776,3.7789,3.7969,0,0,3.7828,3.7833,0,0,0,0,0,0,0,0,3.7184,3.7209,3.7418,3.7422,3.7426,3.7562,3.7542,3.7732,3.7581,3.7521,3.7568,3.7562,3.7705,3.7722,3.777,3.7979,3.7987,3.7829,3.7837,3.7842,3.7846,0,0,0,0,0,0,0,3.7172,3.72,3.7488,3.7421,3.7426,3.7419,3.7439,3.7578,3.7639,3.7526,3.7524,3.7547,3.7706,3.7758,3.7775,3.799,3.7829,3.784,3.7848,3.7853,3.8357,3.8363,0,0,0,0,0,0,3.7155,3.719,3.7482,3.7494,3.729,3.743,3.7453,3.7524,3.7638,3.765,3.7552,3.7545,3.7738,3.776,3.7782,3.8001,3.7842,3.7854,3.7861,3.8351,3.8358,3.8365,0,0,0,0,0,0,3.7147,3.7181,3.7474,3.7342,3.7378,3.7442,3.7522,3.753,3.7582,3.7657,3.7668,3.7593,3.7735,3.7764,3.7923,3.8007,3.786,3.7871,3.8345,3.8354,3.8361,3.844,0,0,0,0,0,0,3.7135,3.7179,3.7247,3.7343,3.7385,3.7612,3.7528,3.7538,3.7604,3.7597,3.7699,3.7711,3.7734,3.7904,3.7935,3.8022,3.7881,3.8337,3.8349,3.8359,3.843,3.845,3.8467,0,0,0,0,0,3.7121,3.7262,3.7251,3.7286,3.7473,3.7616,3.7641,3.7663,3.7611,3.7681,3.7729,3.7708,3.7993,3.792,3.7956,3.8047,3.8332,3.8345,3.8358,3.8422,3.8446,3.8467,0,0,0,0,0,0,3.7175,3.7275,3.7264,3.744,3.752,3.7611,3.77,3.7689,3.7786,3.7776,3.78,3.7824,3.7985,3.8032,3.795,3.8228,3.8155,3.8176,3.8192,3.8215,3.8234,3.8219,3.7892,0,0,0,0,0,3.7207,3.7315,3.7397,3.7544,3.7585,3.7636,3.7699,3.771,3.7794,3.7828,3.7887,3.7971,3.8079,3.815,3.8254,3.8437,3.8458,3.8517,3.8536,3.8551,3.8568,3.8669,3.8696,3.8407,3.8407,3.8406,0,0,3.7276,3.7343,3.741,3.7557,3.762,3.7732,3.7664,3.7785,3.7868,3.7846,3.8,3.8047,3.8141,3.8313,3.8392,3.8357,3.8653,3.8567,3.8578,3.8588,3.8685,3.8712,3.8736,3.8416,3.8414,3.8413,0,0,3.7457,3.7519,3.7648,3.7713,3.7809,3.7842,3.7873,3.7966,3.7996,3.815,3.8136,3.8236,3.8422,3.849,3.8548,3.8755,3.8739,3.8788,3.8886,3.8983,3.9006,3.9026,3.91,3.9126,3.8805,3.8806,3.8806,0,3.7529,3.7696,3.7717,3.7839,3.7904,3.7889,3.802,3.8082,3.8208,3.8254,3.8213,3.8446,3.8508,3.8696,3.8746,3.8795,3.8831,3.8777,3.9001,3.9021,3.9041,3.9111,3.9139,3.8811,3.881,3.881,3.8809,0,3.7781,3.7897,3.799,3.8111,3.8187,3.8313,3.8354,3.8428,3.8432,3.8469,3.8627,3.8701,3.882,3.8865,3.887,3.9054,3.9029,3.8995,3.8922,3.9073,3.914,3.9167,3.8819,3.8817,3.8815,3.8814,0,0,3.8002,3.8132,3.8166,3.822,3.8325,3.8416,3.8542,3.8657,3.872,3.8808,3.8914,3.9072,3.9041,3.9107,3.912,3.9206,3.9365,3.9161,3.9164,3.9196,3.9572,3.9597,3.9628,3.9355,3.936,3.9364,3.9564,0,3.8193,3.8414,3.8437,3.8635,3.8743,3.8729,3.8839,3.8916,3.8954,3.9051,3.9094,3.9205,3.9155,3.9195,3.9279,3.9328,3.9441,3.9314,3.9455,3.946,3.9432,3.9663,3.9691,3.9875,3.959,3.9595,3.9598,0,3.8445,3.8539,3.8748,3.8838,3.8884,3.8982,3.909,3.9183,3.927,3.9291,3.9366,3.9367,3.9498,3.942,3.96,3.9513,3.9572,3.9605,3.9612,3.9627,3.9538,3.9684,3.9935,3.9962,3.9639,3.9636,3.9633,0,3.8586,3.8764,3.8913,3.896,3.9068,3.9138,3.9186,3.9268,3.9336,3.943,3.9474,3.9582,3.9642,3.9726,3.9757,3.9697,3.9936,3.986,3.9958,3.9957,4.0009,4.0005,4.0273,4.0047,4.0047,4.0046,4.0046,0,3.8797,3.8926,3.8977,3.9068,3.9212,3.9236,3.9378,3.9424,3.9496,3.9596,3.9592,3.9686,3.9721,3.9821,3.9846,3.9992,4.0019,4.004,4.0046,4.0041,4.0038,4.008,4.0068,4.0054,4.0052,4.0051,4.0049,0,3.8978,3.9018,3.9178,3.9268,3.9293,3.9395,3.9472,3.956,3.9596,3.9723,3.9755,3.9812,3.993,3.9969,4.0112,4.0129,4.0298,4.0292,4.0269,4.027,4.0365,4.0356,4.0669,4.0712,4.0458,4.046,4.0462,0,3.911,3.9209,3.9308,3.9375,3.9426,3.9533,3.9602,3.9629,3.9701,3.9808,3.9883,4.0,4.0094,4.0283,4.0338,4.0448,4.0444,4.0547,4.0461,4.0453,4.0446,4.044,4.045,4.0563,4.0565,4.0568,4.0569,0,3.9341,3.9356,3.9454,3.9561,3.9643,3.9728,3.9811,3.9865,3.9905,3.9987,4.0106,4.018,4.0325,4.0441,4.0552,4.0603,4.0594,4.0596,4.0624,4.0621,4.0603,4.0614,4.0313,4.0589,4.0587,4.0585,4.0584,4.0583,3.9502,3.9589,3.9672,3.9783,3.9847,3.9924,4.0012,4.0059,4.0159,4.0278,4.0289,4.0418,4.0503,4.0651,4.0707,4.0809,4.078,4.0821,4.0832,4.0842,4.0849,4.0586,4.0829,4.0829,4.0828,4.0828,4.0828,0,3.9733,3.9785,3.9887,4.0001,4.0089,4.0071,4.0161,4.0235,4.0349,4.0428,4.0521,4.0658,4.0771,4.0834,4.0947,4.1016,4.1015,4.1045,4.104,4.1052,4.0868,4.0832,4.1044,4.1044,4.1044,4.1044,4.1044,4.1044,3.9863,4.0008,4.0033,4.0211,4.0263,4.0389,4.0442,4.0513,4.0576,4.073,4.0822,4.0863,4.0936,4.1053,4.1156,4.1172,4.1213,4.1247,4.1259,4.1087,4.1065,4.1043,4.101,4.1255,4.1256,4.1434,4.1436,4.1437]},{"header":{"parameterUnit":"m.s-1","parameterCategory":1,"la1":30.2991,"la2":30.254,"lo1":-89.0895,"lo2":-89.0444,"dy":0.0017,"dx":0.0017,"nx":28,"ny":28,"refTime":"2026-01-01T09:00:00:Z","depth":0,"parameterNumber":3,"parameterNumberName":"V-component_of_WINDS"},"data":[0,0,0,0,0,0,0,0,0,0,0,0,0,0,0,0,0,0,0,0,0,0,0,0,0,0,0,0,0,0,0,0,0,0,0,0,0,0,0,0,0,0,0,0,0,0,0,0,0,0,0,0,0,0,0,0,0,0,-0.8994,-0.8995,0,-0.9081,-0.9082,-0.9083,-0.911,-0.911,-0.911,-0.9109,-0.92,-0.9202,-0.9205,0,0,0,0,0,0,0,0,0,0,0,0,0,-0.8852,-0.8854,-0.8993,-0.8995,-0.8996,-0.9081,-0.9082,-0.9083,-0.911,-0.911,-0.9109,-0.9109,-0.9199,-0.9202,-0.9206,0,0,0,0,0,0,0,0,0,0,0,0,0,-0.8924,-0.8855,-0.8993,-0.9019,-0.9023,-0.9081,-0.9082,-0.9084,-0.9111,-0.911,-0.9109,-0.9109,-0.9198,-0.9202,-0.9206,-0.9245,0,0,-0.9219,-0.9221,0,0,0,0,0,0,0,0,-0.892,-0.8929,-0.9015,-0.9018,-0.9021,-0.9084,-0.9066,-0.9138,-0.9111,-0.9077,-0.9109,-0.9108,-0.9162,-0.9169,-0.9187,-0.9249,-0.9253,-0.9219,-0.9222,-0.9224,-0.9225,0,0,0,0,0,0,0,-0.8915,-0.8925,-0.9028,-0.9016,-0.902,-0.9028,-0.9037,-0.9079,-0.9122,-0.908,-0.9082,-0.9092,-0.9164,-0.9183,-0.9189,-0.9254,-0.9219,-0.9223,-0.9225,-0.9227,-0.9354,-0.9355,0,0,0,0,0,0,-0.8905,-0.8921,-0.9025,-0.9031,-0.8968,-0.9031,-0.9041,-0.9065,-0.9122,-0.913,-0.9093,-0.9093,-0.9176,-0.9184,-0.9192,-0.9242,-0.9224,-0.9227,-0.923,-0.9353,-0.9354,-0.9355,0,0,0,0,0,0,-0.8902,-0.8914,-0.9022,-0.8977,-0.8991,-0.9034,-0.906,-0.9067,-0.9086,-0.9131,-0.9139,-0.9104,-0.9176,-0.9187,-0.9232,-0.9246,-0.9229,-0.9233,-0.9352,-0.9353,-0.9355,-0.9341,0,0,0,0,0,0,-0.8898,-0.8913,-0.8927,-0.8977,-0.8993,-0.9059,-0.9061,-0.9069,-0.9093,-0.9094,-0.9144,-0.9152,-0.9176,-0.9225,-0.9236,-0.9251,-0.9236,-0.9351,-0.9353,-0.9354,-0.9341,-0.9342,-0.9343,0,0,0,0,0,-0.8893,-0.892,-0.8928,-0.894,-0.9012,-0.906,-0.9069,-0.9096,-0.9094,-0.9109,-0.9139,-0.915,-0.9243,-0.923,-0.9242,-0.9259,-0.935,-0.9352,-0.9354,-0.934,-0.9342,-0.9343,0,0,0,0,0,0,-0.8871,-0.8927,-0.8936,-0.898,-0.9015,-0.9064,-0.9084,-0.9097,-0.9133,-0.9133,-0.9166,-0.9177,-0.922,-0.9244,-0.9229,-0.93,-0.9297,-0.9301,-0.9282,-0.9284,-0.9285,-0.9278,-0.924,0,0,0,0,0,-0.8871,-0.8905,-0.8952,-0.8986,-0.9003,-0.9041,-0.9062,-0.9081,-0.9118,-0.9133,-0.9166,-0.9202,-0.9239,-0.9263,-0.93,-0.9345,-0.9357,-0.9363,-0.9364,-0.9364,-0.9368,-0.9395,-0.9398,-0.9361,-0.9361,-0.9361,0,0,-0.8872,-0.8907,-0.8926,-0.8983,-0.9012,-0.9046,-0.9053,-0.9089,-0.9115,-0.9138,-0.9183,-0.9209,-0.9252,-0.9297,-0.9318,-0.9318,-0.9381,-0.9367,-0.9367,-0.937,-0.9397,-0.94,-0.9403,-0.9363,-0.9362,-0.9362,0,0,-0.8891,-0.8921,-0.8953,-0.8982,-0.9026,-0.9052,-0.9059,-0.9107,-0.9125,-0.917,-0.9189,-0.9221,-0.9285,-0.9315,-0.9338,-0.9371,-0.9384,-0.9383,-0.9389,-0.9414,-0.9417,-0.942,-0.9432,-0.9436,-0.9386,-0.9386,-0.9386,0,-0.8887,-0.8939,-0.8968,-0.9004,-0.9029,-0.9052,-0.9085,-0.9112,-0.9166,-0.9183,-0.9183,-0.9264,-0.9294,-0.9348,-0.9356,-0.9374,-0.9385,-0.9377,-0.9414,-0.9417,-0.942,-0.9433,-0.9437,-0.9385,-0.9386,-0.9386,-0.9386,0,-0.8932,-0.8968,-0.8989,-0.9041,-0.9068,-0.9103,-0.9137,-0.9162,-0.9178,-0.9204,-0.9251,-0.9288,-0.9334,-0.9348,-0.9364,-0.9404,-0.9403,-0.9408,-0.9405,-0.9423,-0.9435,-0.944,-0.9385,-0.9385,-0.9385,-0.9385,0,0,-0.8939,-0.9007,-0.9014,-0.9038,-0.909,-0.9119,-0.9155,-0.9199,-0.922,-0.9257,-0.9289,-0.9343,-0.9348,-0.9375,-0.9395,-0.9418,-0.9442,-0.942,-0.9422,-0.9423,-0.949,-0.9486,-0.9491,-0.9451,-0.9452,-0.9453,-0.9487,0,-0.8965,-0.9029,-0.9057,-0.9109,-0.9144,-0.9167,-0.9199,-0.9234,-0.926,-0.9293,-0.9322,-0.936,-0.9363,-0.938,-0.9403,-0.9434,-0.9456,-0.9432,-0.9482,-0.9483,-0.947,-0.9497,-0.9492,-0.9522,-0.9491,-0.9492,-0.9493,0,-0.9003,-0.904,-0.9096,-0.9144,-0.916,-0.9188,-0.9232,-0.9263,-0.9304,-0.9322,-0.9352,-0.9372,-0.9412,-0.9407,-0.9464,-0.9447,-0.9469,-0.9487,-0.9489,-0.9495,-0.9488,-0.9503,-0.9532,-0.9536,-0.95,-0.95,-0.9499,0,-0.9003,-0.9067,-0.9109,-0.9129,-0.9186,-0.9206,-0.923,-0.9271,-0.9297,-0.9335,-0.9353,-0.9395,-0.9419,-0.9452,-0.9483,-0.9477,-0.9537,-0.9535,-0.9553,-0.9552,-0.9564,-0.9562,-0.9597,-0.9578,-0.9578,-0.9578,-0.9578,0,-0.9029,-0.9062,-0.911,-0.9135,-0.9174,-0.9206,-0.9244,-0.9271,-0.9307,-0.9339,-0.9362,-0.9392,-0.9431,-0.9467,-0.9491,-0.9535,-0.9545,-0.9561,-0.9567,-0.9558,-0.9556,-0.9573,-0.9572,-0.9579,-0.9579,-0.9579,-0.9578,0,-0.9034,-0.9067,-0.9115,-0.9166,-0.9179,-0.9205,-0.925,-0.9276,-0.9303,-0.9344,-0.9355,-0.9398,-0.9441,-0.9475,-0.9531,-0.9548,-0.9593,-0.96,-0.9579,-0.9582,-0.9599,-0.9597,-0.9644,-0.9653,-0.9628,-0.9628,-0.9629,0,-0.9048,-0.9074,-0.9128,-0.9151,-0.9176,-0.9213,-0.9239,-0.9273,-0.93,-0.935,-0.9371,-0.9415,-0.9452,-0.952,-0.9557,-0.96,-0.9608,-0.9622,-0.9615,-0.9606,-0.9609,-0.9607,-0.961,-0.9623,-0.9623,-0.9623,-0.9623,0,-0.907,-0.9086,-0.9122,-0.9165,-0.9196,-0.9232,-0.9268,-0.9286,-0.9326,-0.9355,-0.9399,-0.9428,-0.9486,-0.953,-0.9578,-0.9605,-0.9621,-0.9625,-0.9632,-0.9623,-0.961,-0.9618,-0.9581,-0.9624,-0.9624,-0.9623,-0.9623,-0.9623,-0.9081,-0.9105,-0.9147,-0.9188,-0.9219,-0.9253,-0.928,-0.9311,-0.9349,-0.9398,-0.9416,-0.9461,-0.9504,-0.957,-0.9597,-0.9634,-0.9635,-0.9644,-0.9647,-0.9649,-0.9648,-0.9604,-0.9643,-0.9643,-0.9643,-0.9643,-0.9643,0,-0.9104,-0.9132,-0.9169,-0.922,-0.9252,-0.9264,-0.9306,-0.9332,-0.9372,-0.941,-0.9446,-0.9498,-0.9542,-0.9582,-0.9628,-0.965,-0.9659,-0.9661,-0.966,-0.9666,-0.9644,-0.9634,-0.9653,-0.9653,-0.9653,-0.9653,-0.9653,-0.9653,-0.912,-0.9163,-0.9183,-0.9243,-0.9271,-0.9316,-0.9338,-0.937,-0.9401,-0.9457,-0.9493,-0.952,-0.9559,-0.9609,-0.965,-0.9661,-0.9677,-0.9677,-0.969,-0.9669,-0.9667,-0.9666,-0.9656,-0.968,-0.968,-0.9709,-0.9709,-0.9709]}]]